Glens Falls, NY

3:56 PM EDT on May 25, 2017 (GMT -0400)
Bennett Memorial

Weather History for KGFL - January, 2015

Change the Weather History Date:

Tuesday, January 6, 2015

  Actual Average Record
Temperature  
Mean Temperature 10 °F 18 °F  
Max Temperature 16 °F 29 °F 66 °F (2007)
Min Temperature 4 °F 9 °F -30 °F (1996)
Degree Days  
Heating Degree Days 55 47  
Month to date heating degree days 248 276  
Since 1 July heating degree days 2780 3214  
Cooling Degree Days 0 0  
Month to date cooling degree days 0 0  
Year to date cooling degree days 0 0  
Moisture  
Dew Point 5 °F    
Average Humidity 75    
Maximum Humidity 92    
Minimum Humidity 58    
Precipitation  
Precipitation T in 0.09 in 0.69 in (1962)
Month to date precipitation 0.76 0.54  
Year to date precipitation 0.76 0.54  
Sea Level Pressure  
Sea Level Pressure 30.19 in    
Wind  
Wind Speed 5 mph (South)    
Max Wind Speed 12 mph    
Max Gust Speed 16 mph    
Visibility 7 miles    
Events Snow    
T = Trace of Precipitation, MM = Missing Value Source: NWS Daily Summary

Daily Weather History Graph

Daily Weather History Graph

Search for Another Location

Airport or City:

Trip Planner

Search our weather history database for the weather conditions in past years. The results will help you decide how hot, cold, wet, or windy it might be!

Date:

Astronomy

Jan. 06, 2015 Rise Set
Actual Time 7:26 AM EST 4:33 PM EST
Civil Twilight 6:54 AM EST 5:06 PM EST
Nautical Twilight 6:18 AM EST 5:41 PM EST
Astronomical Twilight 5:44 AM EST 6:16 PM EST
Moon 6:24 PM EST (1/6) 7:58 AM EST (1/6)
Length of Visible Light 10h 11m
Length of Day
9h 07m
Full, 98% of the Moon is Illuminated
Jan 6
Full
Jan 13
Last Quarter
Jan 20
New
Jan 26
First Quarter
Feb 3
Full

Hourly Weather History & Observations

Time (EST) Temp. Windchill Dew Point Humidity Pressure Visibility Wind Dir Wind Speed Gust Speed Precip Events Conditions
12:53 AM 10.0 °F 0.4 °F -2.9 °F 56% 30.38 in 10.0 mi SW 5.8 mph - N/A   Overcast
1:53 AM 9.0 °F -2.2 °F -2.0 °F 61% 30.38 in 10.0 mi SSW 6.9 mph - N/A   Clear
2:53 AM 8.1 °F -2.0 °F -0.9 °F 67% 30.40 in 10.0 mi South 5.8 mph - N/A   Clear
3:53 AM 7.0 °F 0.1 °F -0.0 °F 73% 30.38 in 10.0 mi SW 3.5 mph - N/A   Clear
4:53 AM 7.0 °F -1.7 °F 1.0 °F 77% 30.35 in 10.0 mi SW 4.6 mph - N/A   Clear
5:53 AM 7.0 °F 0.1 °F 1.9 °F 80% 30.35 in 10.0 mi ESE 3.5 mph - N/A   Clear
6:53 AM 8.1 °F 1.4 °F 1.9 °F 76% 30.35 in 10.0 mi East 3.5 mph - N/A   Partly Cloudy
7:53 AM 8.1 °F - 3.0 °F 80% 30.34 in 10.0 mi Calm Calm - N/A   Overcast
8:53 AM 10.0 °F 1.8 °F 3.0 °F 73% 30.33 in 10.0 mi SSE 4.6 mph - N/A   Overcast
9:53 AM 10.9 °F 1.4 °F 3.0 °F 70% 30.32 in 9.0 mi South 5.8 mph - N/A   Overcast
10:06 AM 12.0 °F 2.7 °F 3.9 °F 70% 30.27 in 1.8 mi South 5.8 mph - 0.00 in Snow Light Snow
10:13 AM 12.0 °F 1.5 °F 5.0 °F 73% 30.27 in 1.0 mi South 6.9 mph - 0.00 in Snow Light Snow
10:53 AM 12.0 °F 0.5 °F 6.1 °F 77% 30.28 in 1.2 mi South 8.1 mph - 0.00 in Snow Light Snow
11:53 AM 12.9 °F 1.6 °F 7.0 °F 77% 30.22 in 1.2 mi South 8.1 mph - 0.00 in Snow Light Snow
12:53 PM 14.0 °F 2.9 °F 8.1 °F 77% 30.20 in 1.2 mi South 8.1 mph - 0.00 in Snow Light Snow
1:53 PM 15.8 °F 6.1 °F 8.6 °F 73% 30.12 in 1.0 mi South 6.9 mph - N/A Snow Light Snow
2:03 PM 15.1 °F 2.5 °F 9.0 °F 77% 30.12 in 0.8 mi South 10.4 mph - 0.00 in Snow Light Snow
2:14 PM 15.1 °F 4.2 °F 9.0 °F 77% 30.11 in 1.5 mi South 8.1 mph - 0.00 in Snow Light Snow
2:22 PM 15.1 °F 5.2 °F 9.0 °F 77% 30.11 in 3.0 mi South 6.9 mph - 0.00 in Snow Light Snow
2:34 PM 15.1 °F 3.3 °F 9.0 °F 77% 30.11 in 2.5 mi South 9.2 mph - 0.00 in Snow Light Snow
2:53 PM 15.1 °F 4.2 °F 10.0 °F 80% 30.14 in 1.2 mi South 8.1 mph - 0.00 in Snow Light Snow
3:04 PM 15.1 °F 4.2 °F 9.0 °F 77% 30.10 in 3.0 mi South 8.1 mph - 0.00 in Snow Light Snow
3:51 PM 15.8 °F 7.2 °F 8.6 °F 73% 30.08 in 10.0 mi South 5.8 mph - 0.00 in   Overcast
3:53 PM 15.8 °F 6.1 °F 8.6 °F 73% 30.08 in 10.0 mi South 6.9 mph - N/A   Overcast
4:53 PM 15.1 °F 7.7 °F 9.0 °F 77% 30.11 in 9.0 mi SSE 4.6 mph - N/A   Overcast
5:53 PM 14.0 °F 8.2 °F 9.0 °F 80% 30.10 in 10.0 mi South 3.5 mph - N/A   Overcast
6:53 PM 10.9 °F - 8.1 °F 88% 30.08 in 10.0 mi Calm Calm - N/A   Overcast
7:53 PM 7.0 °F - 3.9 °F 87% 30.07 in 10.0 mi Calm Calm - N/A   Clear
8:53 PM 3.9 °F - -0.9 °F 80% 30.05 in 10.0 mi Calm Calm - N/A   Mostly Cloudy
9:53 PM 7.0 °F 0.1 °F 3.0 °F 84% 30.04 in 9.0 mi South 3.5 mph - N/A   Partly Cloudy
10:53 PM 12.0 °F -0.4 °F 8.1 °F 84% 30.01 in 7.0 mi South 9.2 mph - N/A   Overcast
11:53 PM 10.9 °F -0.8 °F 7.0 °F 84% 29.96 in 10.0 mi South 8.1 mph - N/A   Partly Cloudy